Regional Weather Roundup
Issued by NWS

Home | Current Version | Previous Version | Graphics & Text | Print | Product List | Glossary On
Versions: 1 2 3 4 5 6 7 8 9 10 11 12 13 14 15 16 17 18 19 20 21 22 23 24 25 26 27 28 29 30 31 32 33 34 35 36 37 38 39 40 41 42 43 44 45 46 47 48 49 50
000
ASUS43 KLSX 292207
RWRMO

WEATHER SUMMARY FOR MISSOURI
NATIONAL WEATHER SERVICE SPRINGFIELD MO
500 PM CDT SUN MAY 29 2016

NOTE: "FAIR" INDICATES FEW OR NO CLOUDS BELOW 12,000 FEET WITH NO
       SIGNIFICANT WEATHER AND/OR OBSTRUCTIONS TO VISIBILITY.
       CURRENT SKY AND/OR WEATHER CONDITIONS ARE NOT AVAILABLE FOR
       CHILLICOTHE AND FARMINGTON.

MOZ001>031-035>038-043-044-053-054-292300-
...NORTHERN AND WESTERN MISSOURI...

CITY           SKY/WX    TMP DP  RH WIND       PRES   REMARKS
KANSAS CTY INT CLOUDY    82  61  48 SW5       30.06F
KANSAS C DTWN  CLOUDY    85  56  37 SW6       30.04F
LEE`S SUMMIT   CLOUDY    84  57  39 S6        30.07F
ST JOSEPH      SUNNY     87  57  35 W9        30.03F
CHILLICOTHE      N/A     86  59  39 VRB3      30.05F
KIRKSVILLE     MOSUNNY   82  62  50 W8        30.06F

$$
MOZ066>068-077>081-088>096-101>105-292300-
...SOUTHWEST MISSOURI...

CITY           SKY/WX    TMP DP  RH WIND       PRES   REMARKS
SPRINGFIELD    CLOUDY    83  60  45 W5        30.09S
JOPLIN         CLOUDY    85  62  46 NW7       30.08S
BRANSON        PTSUNNY   82  63  51 SE7       30.11F

$$
MOZ032>034-039>042-045>050-055>058-069>072-292300-
...CENTRAL MISSOURI...

CITY           SKY/WX    TMP DP  RH WIND       PRES   REMARKS
COLUMBIA       SUNNY     86  56  35 NW5       30.07F
JEFFERSON CITY SUNNY     84  54  35 S3        30.05F
ROLLA          MOSUNNY   82  60  47 CALM      30.07F
SEDALIA        MOSUNNY   85  58  39 CALM      30.07F
WHITEMAN AFB   MOSUNNY   84  59  42 W6        30.06F
WARRENSBURG    MOSUNNY   82  57  42 CALM      30.07F

$$
MOZ051-052-059>065-292300-
...EAST CENTRAL MISSOURI...

CITY           SKY/WX    TMP DP  RH WIND       PRES   REMARKS
ST LOUIS INTL  PTSUNNY   87  56  34 NW9       30.06F
SPIRIT OF STL  MOSUNNY   87  56  34 W6        30.04F
ST CHARLES     SUNNY     86  57  37 W10       30.04F

$$
MOZ072>076-082>087-097>100-106>115-292300-
...SOUTH CENTRAL AND SOUTHEAST MISSOURI...

CITY           SKY/WX    TMP DP  RH WIND       PRES   REMARKS
CAPE GIRARDEAU MOSUNNY   86  61  42 NW8       30.04F
FARMINGTON     CLOUDY    81  61  50 NW7       30.09F
POPLAR BLUFF   MOSUNNY   86  62  44 N6        30.05F
WEST PLAINS    MOSUNNY   82  62  50 VRB6      30.12F

$$



USA.gov is the U.S. government's official web portal to all federal, state and local government web resources and services.